Time,TemperatureF,DewpointF,PressureIn,WindDirection,WindDirectionDegrees,WindSpeedMPH,WindSpeedGustMPH,Humidity,HourlyPrecipIn,Conditions,Clouds,dailyrainin,SoftwareType,DateUTC
2013-02-05 00:01:00,57.0,35.0,29.91,NNW,345,2.0,2.0,44,0.00,,,-99.99,,2013-02-05 06:01:00,
2013-02-05 00:11:00,57.0,35.0,29.91,NNW,345,2.0,2.0,44,0.00,,,-99.99,,2013-02-05 06:11:00,
2013-02-05 00:21:00,57.0,34.0,29.91,NNW,344,1.0,2.0,41,0.00,,,-99.99,,2013-02-05 06:21:00,
2013-02-05 00:32:00,57.0,34.0,29.91,North,360,2.0,3.0,41,0.00,,,-99.99,,2013-02-05 06:32:00,
2013-02-05 00:42:00,57.0,34.0,29.91,North,360,2.0,3.0,41,0.00,,,-99.99,,2013-02-05 06:42:00,
2013-02-05 00:51:00,57.0,34.0,29.91,North,360,2.0,3.0,41,0.00,,,-99.99,,2013-02-05 06:51:00,
2013-02-05 01:01:00,56.0,33.0,29.92,North,4,2.0,3.0,42,0.00,,,-99.99,,2013-02-05 07:01:00,
2013-02-05 01:11:00,56.0,33.0,29.92,North,4,2.0,3.0,42,0.00,,,-99.99,,2013-02-05 07:11:00,
2013-02-05 01:22:00,56.0,34.0,29.92,North,355,3.0,4.0,43,0.00,,,-99.99,,2013-02-05 07:22:00,
2013-02-05 01:32:00,55.0,33.0,29.92,NNW,346,4.0,5.0,43,0.00,,,-99.99,,2013-02-05 07:32:00,
2013-02-05 01:41:00,55.0,33.0,29.92,NNW,346,4.0,5.0,43,0.00,,,-99.99,,2013-02-05 07:41:00,
2013-02-05 01:52:00,55.0,33.0,29.92,NNW,331,5.0,6.0,44,0.00,,,-99.99,,2013-02-05 07:52:00,
2013-02-05 02:01:00,55.0,33.0,29.93,NNW,337,4.0,6.0,44,0.00,,,-99.99,,2013-02-05 08:01:00,
2013-02-05 02:11:00,55.0,33.0,29.93,NNW,337,4.0,6.0,44,0.00,,,-99.99,,2013-02-05 08:11:00,
2013-02-05 02:21:00,54.0,33.0,29.93,NNW,337,4.0,6.0,45,0.00,,,-99.99,,2013-02-05 08:21:00,
2013-02-05 02:31:00,54.0,34.0,29.93,NNW,338,4.0,5.0,46,0.00,,,-99.99,,2013-02-05 08:31:00,
2013-02-05 02:41:00,54.0,34.0,29.93,NNW,338,4.0,5.0,46,0.00,,,-99.99,,2013-02-05 08:41:00,
2013-02-05 02:52:00,54.0,33.0,29.93,NNW,342,7.0,8.0,45,0.00,,,-99.99,,2013-02-05 08:52:00,
2013-02-05 03:02:00,54.0,34.0,29.93,NNW,338,5.0,8.0,46,0.00,,,-99.99,,2013-02-05 09:02:00,
2013-02-05 03:11:00,54.0,35.0,29.94,NNW,328,7.0,10.0,48,0.00,,,-99.99,,2013-02-05 09:11:00,
2013-02-05 03:21:00,54.0,35.0,29.94,NNW,328,7.0,10.0,48,0.00,,,-99.99,,2013-02-05 09:21:00,
2013-02-05 03:31:00,53.0,35.0,29.94,NNE,13,4.0,8.0,50,0.00,,,-99.99,,2013-02-05 09:31:00,
2013-02-05 03:42:00,53.0,35.0,29.94,NNE,13,4.0,8.0,50,0.00,,,-99.99,,2013-02-05 09:42:00,
2013-02-05 03:51:00,53.0,36.0,29.93,NNW,346,10.0,11.0,53,0.00,,,-99.99,,2013-02-05 09:51:00,
2013-02-05 04:01:00,53.0,36.0,29.93,NNW,346,10.0,11.0,53,0.00,,,-99.99,,2013-02-05 10:01:00,
2013-02-05 04:11:00,53.0,36.0,29.93,NNW,346,10.0,11.0,53,0.00,,,-99.99,,2013-02-05 10:11:00,
2013-02-05 04:21:00,53.0,36.0,29.93,NNW,346,10.0,11.0,53,0.00,,,-99.99,,2013-02-05 10:21:00,
2013-02-05 04:31:00,52.0,37.0,29.93,North,353,8.0,11.0,57,0.00,,,-99.99,,2013-02-05 10:31:00,
2013-02-05 04:42:00,52.0,37.0,29.93,North,353,8.0,11.0,57,0.00,,,-99.99,,2013-02-05 10:42:00,
2013-02-05 04:52:00,52.0,38.0,29.93,NNW,330,3.0,10.0,58,0.00,,,-99.99,,2013-02-05 10:52:00,
2013-02-05 05:01:00,51.0,37.0,29.94,NW,320,4.0,10.0,59,0.00,,,-99.99,,2013-02-05 11:01:00,
2013-02-05 05:11:00,51.0,37.0,29.94,NW,320,4.0,10.0,59,0.00,,,-99.99,,2013-02-05 11:11:00,
2013-02-05 05:22:00,51.0,38.0,29.95,NNW,346,5.0,6.0,60,0.00,,,-99.99,,2013-02-05 11:22:00,
2013-02-05 05:32:00,50.0,37.0,29.95,NW,317,4.0,7.0,61,0.00,,,-99.99,,2013-02-05 11:32:00,
2013-02-05 05:42:00,50.0,37.0,29.95,NW,317,4.0,7.0,61,0.00,,,-99.99,,2013-02-05 11:42:00,
2013-02-05 05:52:00,50.0,37.0,29.95,NW,317,4.0,7.0,61,0.00,,,-99.99,,2013-02-05 11:52:00,
2013-02-05 06:01:00,50.0,38.0,29.95,NNW,346,4.0,6.0,63,0.00,,,-99.99,,2013-02-05 12:01:00,
2013-02-05 06:12:00,50.0,38.0,29.95,NNW,346,4.0,6.0,63,0.00,,,-99.99,,2013-02-05 12:12:00,
2013-02-05 06:22:00,49.0,38.0,29.96,NW,322,4.0,7.0,65,0.00,,,-99.99,,2013-02-05 12:22:00,
2013-02-05 06:32:00,49.0,38.0,29.97,NNW,328,3.0,8.0,66,0.00,,,-99.99,,2013-02-05 12:32:00,
2013-02-05 06:42:00,49.0,38.0,29.97,NNW,328,3.0,8.0,66,0.00,,,-99.99,,2013-02-05 12:42:00,
2013-02-05 06:52:00,48.0,37.0,29.97,NNW,330,1.0,5.0,66,0.00,,,-99.99,,2013-02-05 12:52:00,
2013-02-05 07:01:00,46.0,36.0,29.98,SE,136,1.0,2.0,69,0.00,,,-99.99,,2013-02-05 13:01:00,
2013-02-05 07:12:00,46.0,36.0,29.98,SE,136,1.0,2.0,69,0.00,,,-99.99,,2013-02-05 13:12:00,
2013-02-05 07:21:00,46.0,36.0,29.98,SE,136,1.0,2.0,69,0.00,,,-99.99,,2013-02-05 13:21:00,
2013-02-05 07:31:00,43.0,35.0,30.00,ESE,104,2.0,3.0,74,0.00,,,-99.99,,2013-02-05 13:31:00,
2013-02-05 07:42:00,43.0,35.0,30.00,ESE,104,2.0,3.0,74,0.00,,,-99.99,,2013-02-05 13:42:00,
2013-02-05 07:52:00,43.0,35.0,30.00,ESE,104,2.0,3.0,74,0.00,,,-99.99,,2013-02-05 13:52:00,
2013-02-05 08:01:00,44.0,36.0,30.01,NNW,338,0.0,0.0,74,0.00,,,-99.99,,2013-02-05 14:01:00,
2013-02-05 08:12:00,44.0,36.0,30.01,NNW,338,0.0,0.0,74,0.00,,,-99.99,,2013-02-05 14:12:00,
2013-02-05 08:21:00,45.0,37.0,30.02,West,278,0.0,0.0,72,0.00,,,-99.99,,2013-02-05 14:21:00,
2013-02-05 08:32:00,47.0,37.0,30.03,West,271,1.0,3.0,69,0.00,,,-99.99,,2013-02-05 14:32:00,
2013-02-05 08:42:00,47.0,37.0,30.03,West,271,1.0,3.0,69,0.00,,,-99.99,,2013-02-05 14:42:00,
2013-02-05 08:52:00,49.0,38.0,30.04,WNW,284,2.0,3.0,65,0.00,,,-99.99,,2013-02-05 14:52:00,
2013-02-05 09:02:00,49.0,38.0,30.04,WNW,284,2.0,3.0,65,0.00,,,-99.99,,2013-02-05 15:02:00,
2013-02-05 09:11:00,49.0,38.0,30.04,WNW,284,2.0,3.0,65,0.00,,,-99.99,,2013-02-05 15:11:00,
2013-02-05 09:21:00,51.0,38.0,30.04,WNW,285,2.0,3.0,62,0.00,,,-99.99,,2013-02-05 15:21:00,
2013-02-05 09:32:00,54.0,40.0,30.05,WNW,294,1.0,3.0,58,0.00,,,-99.99,,2013-02-05 15:32:00,
2013-02-05 09:41:00,54.0,40.0,30.05,WNW,294,1.0,3.0,58,0.00,,,-99.99,,2013-02-05 15:41:00,
2013-02-05 09:52:00,55.0,40.0,30.05,West,273,1.0,3.0,56,0.00,,,-99.99,,2013-02-05 15:52:00,
2013-02-05 10:01:00,57.0,41.0,30.05,West,260,1.0,2.0,54,0.00,,,-99.99,,2013-02-05 16:01:00,
2013-02-05 10:11:00,57.0,41.0,30.05,West,260,1.0,2.0,54,0.00,,,-99.99,,2013-02-05 16:11:00,
2013-02-05 10:22:00,57.0,41.0,30.05,West,260,1.0,2.0,54,0.00,,,-99.99,,2013-02-05 16:22:00,
2013-02-05 10:32:00,57.0,41.0,30.05,West,260,1.0,2.0,54,0.00,,,-99.99,,2013-02-05 16:32:00,
2013-02-05 10:42:00,57.0,41.0,30.05,West,260,1.0,2.0,54,0.00,,,-99.99,,2013-02-05 16:42:00,
2013-02-05 10:52:00,61.0,42.0,30.06,NNW,336,3.0,5.0,50,0.00,,,-99.99,,2013-02-05 16:52:00,
2013-02-05 11:01:00,63.0,43.0,30.06,NNE,18,4.0,7.0,48,0.00,,,-99.99,,2013-02-05 17:01:00,
2013-02-05 11:11:00,63.0,43.0,30.06,NNE,18,4.0,7.0,48,0.00,,,-99.99,,2013-02-05 17:11:00,
2013-02-05 11:21:00,63.0,44.0,30.06,NW,312,3.0,7.0,49,0.00,,,-99.99,,2013-02-05 17:21:00,
2013-02-05 11:32:00,63.0,44.0,30.06,NW,312,3.0,7.0,49,0.00,,,-99.99,,2013-02-05 17:32:00,
2013-02-05 11:42:00,63.0,44.0,30.06,NW,312,3.0,7.0,49,0.00,,,-99.99,,2013-02-05 17:42:00,
2013-02-05 11:52:00,66.0,44.0,30.05,NNW,340,4.0,10.0,45,0.00,,,-99.99,,2013-02-05 17:52:00,
2013-02-05 12:02:00,68.0,43.0,30.04,NNW,339,5.0,8.0,41,0.00,,,-99.99,,2013-02-05 18:02:00,
2013-02-05 12:11:00,68.0,43.0,30.04,NNW,339,5.0,8.0,41,0.00,,,-99.99,,2013-02-05 18:11:00,
2013-02-05 12:21:00,69.0,42.0,30.04,NW,321,4.0,11.0,38,0.00,,,-99.99,,2013-02-05 18:21:00,
2013-02-05 12:32:00,69.0,42.0,30.04,NW,321,4.0,11.0,38,0.00,,,-99.99,,2013-02-05 18:32:00,
2013-02-05 12:42:00,69.0,42.0,30.04,NW,321,4.0,11.0,38,0.00,,,-99.99,,2013-02-05 18:42:00,
2013-02-05 12:52:00,70.0,40.0,30.02,NW,308,2.0,11.0,34,0.00,,,-99.99,,2013-02-05 18:52:00,
2013-02-05 13:02:00,70.0,40.0,30.02,NW,308,2.0,11.0,34,0.00,,,-99.99,,2013-02-05 19:02:00,
2013-02-05 13:11:00,70.0,40.0,30.02,NW,308,2.0,11.0,34,0.00,,,-99.99,,2013-02-05 19:11:00,
2013-02-05 13:21:00,71.0,39.0,30.01,NNW,327,6.0,9.0,31,0.00,,,-99.99,,2013-02-05 19:21:00,
2013-02-05 13:32:00,72.0,40.0,29.99,ENE,73,3.0,8.0,31,0.00,,,-99.99,,2013-02-05 19:32:00,
2013-02-05 13:42:00,72.0,40.0,29.99,ENE,73,3.0,8.0,31,0.00,,,-99.99,,2013-02-05 19:42:00,
2013-02-05 13:52:00,72.0,39.0,29.98,North,353,2.0,7.0,30,0.00,,,-99.99,,2013-02-05 19:52:00,
2013-02-05 14:01:00,72.0,39.0,29.98,North,353,2.0,7.0,30,0.00,,,-99.99,,2013-02-05 20:01:00,
2013-02-05 14:11:00,72.0,39.0,29.98,North,353,2.0,7.0,30,0.00,,,-99.99,,2013-02-05 20:11:00,
2013-02-05 14:21:00,73.0,39.0,29.97,NW,325,2.0,8.0,29,0.00,,,-99.99,,2013-02-05 20:21:00,
2013-02-05 14:32:00,73.0,40.0,29.96,NNE,20,1.0,9.0,30,0.00,,,-99.99,,2013-02-05 20:32:00,
2013-02-05 14:42:00,73.0,40.0,29.96,NNE,20,1.0,9.0,30,0.00,,,-99.99,,2013-02-05 20:42:00,
2013-02-05 14:52:00,74.0,39.0,29.96,NNW,344,7.0,7.0,28,0.00,,,-99.99,,2013-02-05 20:52:00,
2013-02-05 15:02:00,75.0,40.0,29.95,NW,310,1.0,9.0,28,0.00,,,-99.99,,2013-02-05 21:02:00,
2013-02-05 15:11:00,75.0,40.0,29.95,NW,310,1.0,9.0,28,0.00,,,-99.99,,2013-02-05 21:11:00,
2013-02-05 15:21:00,75.0,41.0,29.94,ESE,117,3.0,7.0,29,0.00,,,-99.99,,2013-02-05 21:21:00,
2013-02-05 15:32:00,75.0,41.0,29.93,East,101,2.0,7.0,29,0.00,,,-99.99,,2013-02-05 21:32:00,
2013-02-05 15:42:00,75.0,41.0,29.93,East,101,2.0,7.0,29,0.00,,,-99.99,,2013-02-05 21:42:00,
2013-02-05 15:51:00,76.0,40.0,29.93,NE,49,4.0,6.0,27,0.00,,,-99.99,,2013-02-05 21:51:00,
2013-02-05 16:01:00,75.0,38.0,29.92,WSW,256,2.0,6.0,26,0.00,,,-99.99,,2013-02-05 22:01:00,
2013-02-05 16:11:00,75.0,38.0,29.92,WSW,256,2.0,6.0,26,0.00,,,-99.99,,2013-02-05 22:11:00,
2013-02-05 16:21:00,75.0,38.0,29.92,WSW,256,2.0,6.0,26,0.00,,,-99.99,,2013-02-05 22:21:00,
2013-02-05 16:32:00,76.0,39.0,29.92,NE,44,2.0,5.0,26,0.00,,,-99.99,,2013-02-05 22:32:00,
2013-02-05 16:42:00,76.0,39.0,29.92,NE,44,2.0,5.0,26,0.00,,,-99.99,,2013-02-05 22:42:00,
2013-02-05 16:52:00,76.0,39.0,29.92,ESE,117,4.0,5.0,26,0.00,,,-99.99,,2013-02-05 22:52:00,
2013-02-05 17:02:00,76.0,38.0,29.92,SSW,207,6.0,8.0,25,0.00,,,-99.99,,2013-02-05 23:02:00,
2013-02-05 17:11:00,76.0,38.0,29.92,SSW,207,6.0,8.0,25,0.00,,,-99.99,,2013-02-05 23:11:00,
2013-02-05 17:21:00,75.0,37.0,29.92,East,100,2.0,6.0,25,0.00,,,-99.99,,2013-02-05 23:21:00,
2013-02-05 17:32:00,75.0,37.0,29.92,East,100,2.0,6.0,25,0.00,,,-99.99,,2013-02-05 23:32:00,
2013-02-05 17:42:00,75.0,37.0,29.92,East,100,2.0,6.0,25,0.00,,,-99.99,,2013-02-05 23:42:00,
2013-02-05 17:52:00,74.0,37.0,29.92,East,100,1.0,5.0,26,0.00,,,-99.99,,2013-02-05 23:52:00,
2013-02-05 18:02:00,74.0,37.0,29.92,ESE,106,4.0,4.0,26,0.00,,,-99.99,,2013-02-06 00:02:00,
2013-02-05 18:11:00,74.0,37.0,29.92,ESE,106,4.0,4.0,26,0.00,,,-99.99,,2013-02-06 00:11:00,
2013-02-05 18:21:00,73.0,37.0,29.92,ESE,103,3.0,6.0,27,0.00,,,-99.99,,2013-02-06 00:21:00,
2013-02-05 18:32:00,71.0,37.0,29.93,East,97,2.0,6.0,29,0.00,,,-99.99,,2013-02-06 00:32:00,
2013-02-05 18:42:00,71.0,37.0,29.93,East,97,2.0,6.0,29,0.00,,,-99.99,,2013-02-06 00:42:00,
2013-02-05 18:52:00,71.0,37.0,29.93,East,97,2.0,6.0,29,0.00,,,-99.99,,2013-02-06 00:52:00,
2013-02-05 19:02:00,70.0,37.0,29.93,East,90,4.0,4.0,30,0.00,,,-99.99,,2013-02-06 01:02:00,
2013-02-05 19:11:00,70.0,37.0,29.93,East,90,4.0,4.0,30,0.00,,,-99.99,,2013-02-06 01:11:00,
2013-02-05 19:22:00,70.0,37.0,29.93,ENE,78,3.0,5.0,30,0.00,,,-99.99,,2013-02-06 01:22:00,
2013-02-05 19:32:00,70.0,37.0,29.93,ENE,78,3.0,5.0,30,0.00,,,-99.99,,2013-02-06 01:32:00,
2013-02-05 19:42:00,70.0,37.0,29.93,ENE,78,3.0,5.0,30,0.00,,,-99.99,,2013-02-06 01:42:00,
2013-02-05 19:52:00,68.0,39.0,29.94,East,89,2.0,7.0,35,0.00,,,-99.99,,2013-02-06 01:52:00,
2013-02-05 20:01:00,67.0,39.0,29.94,East,84,5.0,6.0,36,0.00,,,-99.99,,2013-02-06 02:01:00,
2013-02-05 20:11:00,67.0,39.0,29.94,East,84,5.0,6.0,36,0.00,,,-99.99,,2013-02-06 02:11:00,
2013-02-05 20:22:00,67.0,39.0,29.95,ENE,73,1.0,8.0,36,0.00,,,-99.99,,2013-02-06 02:22:00,
2013-02-05 20:32:00,66.0,38.0,29.96,East,79,3.0,5.0,36,0.00,,,-99.99,,2013-02-06 02:32:00,
2013-02-05 20:42:00,66.0,38.0,29.96,East,79,3.0,5.0,36,0.00,,,-99.99,,2013-02-06 02:42:00,
2013-02-05 20:52:00,66.0,38.0,29.98,East,88,5.0,8.0,36,0.00,,,-99.99,,2013-02-06 02:52:00,
2013-02-05 21:02:00,65.0,41.0,29.99,ENE,61,3.0,10.0,41,0.00,,,-99.99,,2013-02-06 03:02:00,
2013-02-05 21:12:00,65.0,41.0,29.99,ENE,61,3.0,10.0,41,0.00,,,-99.99,,2013-02-06 03:12:00,
2013-02-05 21:22:00,65.0,41.0,29.99,ENE,61,3.0,10.0,41,0.00,,,-99.99,,2013-02-06 03:22:00,
2013-02-05 21:32:00,63.0,46.0,29.98,ESE,102,7.0,14.0,53,0.00,,,-99.99,,2013-02-06 03:32:00,
2013-02-05 21:42:00,63.0,46.0,29.98,ESE,102,7.0,14.0,53,0.00,,,-99.99,,2013-02-06 03:42:00,
2013-02-05 21:53:00,63.0,47.0,29.98,East,86,6.0,13.0,55,0.00,,,-99.99,,2013-02-06 03:53:00,
2013-02-05 22:02:00,63.0,48.0,29.98,ENE,75,7.0,12.0,57,0.00,,,-99.99,,2013-02-06 04:02:00,
2013-02-05 22:11:00,63.0,48.0,29.98,ENE,75,7.0,12.0,57,0.00,,,-99.99,,2013-02-06 04:11:00,
2013-02-05 22:21:00,62.0,47.0,29.99,East,84,5.0,13.0,58,0.00,,,-99.99,,2013-02-06 04:21:00,
2013-02-05 22:32:00,62.0,47.0,30.01,East,95,2.0,8.0,59,0.00,,,-99.99,,2013-02-06 04:32:00,
2013-02-05 22:42:00,62.0,47.0,30.01,East,95,2.0,8.0,59,0.00,,,-99.99,,2013-02-06 04:42:00,
2013-02-05 22:52:00,61.0,47.0,30.00,East,101,5.0,7.0,60,0.00,,,-99.99,,2013-02-06 04:52:00,
2013-02-05 23:01:00,61.0,47.0,30.00,East,101,5.0,7.0,60,0.00,,,-99.99,,2013-02-06 05:01:00,
2013-02-05 23:12:00,61.0,47.0,30.00,East,101,5.0,7.0,60,0.00,,,-99.99,,2013-02-06 05:12:00,
2013-02-05 23:22:00,61.0,48.0,29.99,ESE,112,8.0,13.0,62,0.00,,,-99.99,,2013-02-06 05:22:00,
2013-02-05 23:31:00,61.0,48.0,30.00,ESE,108,8.0,12.0,63,0.00,,,-99.99,,2013-02-06 05:31:00,
2013-02-05 23:42:00,61.0,48.0,30.00,ESE,108,8.0,12.0,63,0.00,,,-99.99,,2013-02-06 05:42:00,
2013-02-05 23:53:00,61.0,48.0,30.00,ESE,108,8.0,12.0,63,0.00,,,-99.99,,2013-02-06 05:53:00,